Retour au catalogue

HMU-SAT2

ActifScienceVLEO
NORAD 67688·PAYLOAD·🇯🇵 Japan

Lancé Nov 20, 1998 depuis Baikonur Cosmodrome

Loading…

Prochains Passages (prochaines 24 heures)

TLE

FraisSource: Space-Track

Époque: Sep 14, 2026, 05:27 UTC

1 67688U 98067YE  26257.22753096  .00118805  00000-0  68475-3 0  9997
2 67688  51.6249 198.5732 0007881 132.7318 227.4347 15.77775365 34209

Suivez HMU-SAT2 en temps réel avec AllMySat

Download on the App Store